FW6919 Weather Reports


Display with metric or nautical units.
time (UTC)temp
F
wind
direction
speed
MPH
gust
MPH
rain 1hr
in
rain 24hr
in
rain mn
in
humidity
%
barometer
mb
20260502130526 55 0 0.0 5.0 0.00 0.00 0.00 88 1022.5
20260502123527 52 0 0.0 1.0 0.00 0.00 0.00 90 1022.2
20260502123025 51 0 0.0 1.0 0.00 0.00 0.00 90 1022.1
20260502122525 51 0 0.0 0.0 0.00 0.00 0.00 90 1022.1
20260502122025 51 0 0.0 0.0 0.00 0.00 0.00 89 1021.8
20260502121523 51 0 0.0 0.0 0.00 0.00 0.00 89 1021.7
20260502121025 50 0 0.0 1.0 0.00 0.00 0.00 88 1021.6
20260502120525 51 0 0.0 1.0 0.00 0.00 0.00 88 1021.6
20260502115523 51 0 0.0 0.0 0.00 0.00 0.00 87 1021.4
20260502115023 51 0 0.0 0.0 0.00 0.00 0.00 87 1021.4
20260502114526 51 0 0.0 2.0 0.00 0.00 0.00 87 1021.2
20260502114025 51 0 0.0 2.0 0.00 0.00 0.00 87 1021.2
20260502113522 52 316 1.0 2.0 0.00 0.00 0.00 87 1021.2
20260502113023 52 0 0.0 2.0 0.00 0.00 0.00 87 1021.2
20260502112523 52 0 0.0 2.0 0.00 0.00 0.00 87 1021.0
20260502112024 52 0 0.0 2.0 0.00 0.00 0.00 87 1020.9
20260502111522 52 316 1.0 1.0 0.00 0.00 0.00 86 1020.8
20260502111025 52 0 0.0 1.0 0.00 0.00 0.00 86 1020.6
20260502110526 52 0 0.0 1.0 0.00 0.00 0.00 86 1020.6
20260502110023 52 0 0.0 1.0 0.00 0.00 0.00 85 1020.5
20260502105522 53 316 1.0 3.0 0.00 0.00 0.00 85 1020.5
20260502105022 53 316 1.0 3.0 0.00 0.00 0.00 85 1020.6
20260502104525 53 0 0.0 3.0 0.00 0.00 0.00 85 1020.4
20260502104023 53 316 1.0 5.0 0.00 0.00 0.00 86 1020.3
20260502103524 53 316 1.0 5.0 0.00 0.00 0.00 86 1020.3
20260502103024 52 317 2.0 5.0 0.00 0.00 0.00 87 1020.4
20260502102525 52 313 3.0 4.0 0.00 0.00 0.00 87 1020.5
20260502102023 52 300 1.0 4.0 0.00 0.00 0.00 87 1020.6
20260502101521 52 297 2.0 4.0 0.00 0.00 0.00 88 1020.6
20260502101022 52 0 0.0 4.0 0.00 0.00 0.00 88 1020.6
20260502100525 52 296 1.0 4.0 0.00 0.00 0.00 88 1020.5
20260502091521 51 0 0.0 0.0 0.00 0.00 0.00 89 1020.1
20260502091021 51 0 0.0 0.0 0.00 0.00 0.00 89 1020.1
20260502090519 51 0 0.0 0.0 0.00 0.00 0.00 89 1020.2
20260502071517 52 0 0.0 0.0 0.00 0.00 0.00 87 1020.4
20260502071017 52 0 0.0 0.0 0.00 0.00 0.00 87 1020.3
20260502070520 52 0 0.0 0.0 0.00 0.00 0.00 87 1020.4
20260502070017 52 0 0.0 2.0 0.00 0.00 0.00 87 1020.4
20260502065519 53 0 0.0 2.0 0.00 0.00 0.00 87 1020.4
20260502065018 53 170 1.0 0.0 0.00 0.00 0.00 86 1020.4
20260502064518 53 0 0.0 1.0 0.00 0.00 0.00 86 1020.5
20260502064015 53 0 0.0 1.0 0.00 0.00 0.00 86 1020.6
20260502063515 53 0 0.0 1.0 0.00 0.00 0.00 85 1020.5
20260502063021 53 0 0.0 1.0 0.00 0.00 0.00 85 1020.4
20260502062514 53 0 0.0 0.0 0.00 0.00 0.00 86 1020.5
20260502062016 53 0 0.0 0.0 0.00 0.00 0.00 86 1020.5
20260502061516 53 0 0.0 0.0 0.00 0.00 0.00 86 1020.4
20260502061018 53 0 0.0 0.0 0.00 0.00 0.00 86 1020.4
20260502060518 53 0 0.0 0.0 0.00 0.00 0.00 86 1020.4
20260502060019 53 0 0.0 0.0 0.00 0.00 0.00 86 1020.3
20260502055517 53 0 0.0 3.0 0.00 0.00 0.00 85 1020.3
20260502055016 53 0 0.0 4.0 0.00 0.00 0.00 85 1020.3
20260502054515 54 0 0.0 4.0 0.00 0.00 0.00 86 1020.4
20260502054016 54 0 0.0 1.0 0.00 0.00 0.00 86 1020.2
20260502053519 54 0 0.0 1.0 0.00 0.00 0.00 85 1020.3
20260502053015 54 0 0.0 0.0 0.00 0.00 0.00 85 1020.4
20260502052514 54 0 0.0 0.0 0.00 0.00 0.00 85 1020.4
20260502052014 54 0 0.0 0.0 0.00 0.00 0.00 84 1020.5
20260502051515 54 0 0.0 0.0 0.00 0.00 0.00 84 1020.5
20260502051016 55 0 0.0 0.0 0.00 0.00 0.00 83 1020.5
20260502050514 55 0 0.0 0.0 0.00 0.00 0.00 83 1020.4
20260502050016 55 0 0.0 0.0 0.00 0.00 0.00 83 1020.4
20260502045514 55 0 0.0 0.0 0.00 0.00 0.00 82 1020.4
20260502045017 56 0 0.0 0.0 0.00 0.00 0.00 81 1020.5
20260502044514 56 0 0.0 0.0 0.00 0.00 0.00 81 1020.3
20260502044015 56 0 0.0 0.0 0.00 0.00 0.00 80 1020.4
20260502043514 56 0 0.0 1.0 0.00 0.00 0.00 80 1020.4
20260502043014 56 0 0.0 1.0 0.00 0.00 0.00 80 1020.4
20260502042513 57 0 0.0 1.0 0.00 0.00 0.00 79 1020.4
20260502042016 57 0 0.0 0.0 0.00 0.00 0.00 79 1020.4
20260502041513 57 0 0.0 1.0 0.00 0.00 0.00 79 1020.4
20260502041012 57 0 0.0 2.0 0.00 0.00 0.00 79 1020.2
20260502040512 58 0 0.0 2.0 0.00 0.00 0.00 79 1020.1
20260502040017 58 0 0.0 2.0 0.00 0.00 0.00 78 1020.2
20260502035513 58 0 0.0 2.0 0.00 0.00 0.00 77 1020.3
20260502035015 59 0 0.0 2.0 0.00 0.00 0.00 76 1020.3
20260502034514 59 170 1.0 1.0 0.00 0.00 0.00 75 1020.1
20260502034015 59 0 0.0 0.0 0.00 0.00 0.00 75 1020.2
20260502033513 59 0 0.0 0.0 0.00 0.00 0.00 74 1019.9
20260502033014 59 0 0.0 0.0 0.00 0.00 0.00 73 1019.9
20260502032512 59 0 0.0 2.0 0.00 0.00 0.00 73 1020.1
20260502032011 60 0 0.0 2.0 0.00 0.00 0.00 73 1019.9
20260502031514 60 170 1.0 3.0 0.00 0.00 0.00 72 1019.8
20260502031013 60 170 1.0 4.0 0.00 0.00 0.00 72 1019.9
20260502030512 60 0 0.0 5.0 0.00 0.00 0.00 72 1019.9
20260502030013 60 0 0.0 5.0 0.00 0.00 0.00 72 1019.8
20260502025512 60 169 2.0 4.0 0.00 0.00 0.00 72 1019.8
20260502025011 60 168 2.0 4.0 0.00 0.00 0.00 72 1019.6
20260502024512 61 167 1.0 5.0 0.00 0.00 0.00 71 1019.6
20260502024012 61 170 4.0 5.0 0.00 0.00 0.00 71 1019.5
20260502023512 61 169 2.0 5.0 0.00 0.00 0.00 70 1019.2
20260502023014 61 169 2.0 5.0 0.00 0.00 0.00 71 1019.2
20260502022511 61 84 2.0 3.0 0.00 0.00 0.00 72 1019.2
20260502022012 61 0 0.0 3.0 0.00 0.00 0.00 72 1019.3
20260502021510 61 0 0.0 3.0 0.00 0.00 0.00 72 1019.1
20260502021012 61 0 0.0 0.0 0.00 0.00 0.00 72 1019.1
20260502020514 61 0 0.0 0.0 0.00 0.00 0.00 73 1019.1
20260502020012 61 0 0.0 0.0 0.00 0.00 0.00 72 1019.0
20260502015512 61 0 0.0 0.0 0.00 0.00 0.00 71 1018.9
20260502015011 61 0 0.0 0.0 0.00 0.00 0.00 71 1018.8
20260502014514 62 0 0.0 0.0 0.00 0.00 0.00 71 1018.7
20260502014014 62 0 0.0 0.0 0.00 0.00 0.00 71 1018.6
20260502013514 62 0 0.0 0.0 0.00 0.00 0.00 70 1018.4
20260502013013 62 0 0.0 1.0 0.00 0.00 0.00 71 1018.3
20260502012513 62 0 0.0 3.0 0.00 0.00 0.00 71 1018.2
20260502012016 62 0 0.0 3.0 0.00 0.00 0.00 70 1018.2
20260502011513 63 82 1.0 2.0 0.00 0.00 0.00 71 1018.0
20260502011012 63 82 1.0 2.0 0.00 0.00 0.00 70 1018.0
20260502010514 63 82 2.0 2.0 0.00 0.00 0.00 68 1017.9
20260502010015 63 0 0.0 2.0 0.00 0.00 0.00 67 1017.8
20260502005515 63 0 0.0 1.0 0.00 0.00 0.00 67 1017.8
20260502005013 63 0 0.0 2.0 0.00 0.00 0.00 67 1017.6
20260502004514 63 0 0.0 2.0 0.00 0.00 0.00 67 1017.5
20260502004010 63 0 0.0 2.0 0.00 0.00 0.00 67 1017.4
20260502003513 63 80 2.0 3.0 0.00 0.00 0.00 67 1017.4
20260502003011 63 0 0.0 3.0 0.00 0.00 0.00 67 1017.3
20260502002514 63 0 0.0 3.0 0.00 0.00 0.00 67 1017.3
20260502002010 63 80 1.0 4.0 0.00 0.00 0.00 66 1017.2
20260502001511 63 80 1.0 4.0 0.00 0.00 0.00 66 1017.2
20260502001011 63 80 2.0 4.0 0.00 0.00 0.00 65 1017.2
20260502000511 64 80 3.0 3.0 0.00 0.00 0.00 66 1017.1
20260502000015 64 0 0.0 3.0 0.00 0.00 0.00 65 1017.1
20260501235513 64 80 1.0 4.0 0.00 0.00 0.00 66 1017.2
20260501235012 64 80 1.0 4.0 0.00 0.00 0.00 65 1017.0
20260501234510 64 74 1.0 4.0 0.00 0.00 0.00 62 1017.0
20260501234014 65 71 1.0 4.0 0.00 0.00 0.00 62 1016.9
20260501233512 65 0 0.0 5.0 0.00 0.00 0.00 63 1016.8
20260501233012 65 0 0.0 5.0 0.00 0.00 0.00 62 1016.8
20260501232513 65 65 5.0 5.0 0.00 0.00 0.00 62 1016.7
20260501232015 65 66 3.0 5.0 0.00 0.00 0.00 61 1016.6
20260501231514 65 63 4.0 6.0 0.00 0.00 0.00 61 1016.6
20260501231015 65 55 1.0 7.0 0.00 0.00 0.00 62 1016.6
20260501230512 65 49 3.0 7.0 0.00 0.00 0.00 60 1016.5
20260501230013 65 74 4.0 6.0 0.00 0.00 0.00 61 1016.4
20260501225512 65 90 2.0 6.0 0.00 0.00 0.00 63 1016.5
20260501225015 65 64 1.0 5.0 0.00 0.00 0.00 62 1016.5
20260501224512 65 30 2.0 5.0 0.00 0.00 0.00 63 1016.4
20260501224014 64 29 3.0 7.0 0.00 0.00 0.00 61 1016.5
20260501223514 64 69 1.0 7.0 0.00 0.00 0.00 61 1016.5
20260501222910 64 88 1.0 6.0 0.00 0.00 0.00 62 1016.6
20260501222411 64 67 4.0 9.0 0.00 0.00 0.00 62 1016.5
20260501221913 64 12 3.0 9.0 0.00 0.00 0.00 61 1016.7
20260501221416 65 80 8.0 8.0 0.00 0.00 0.00 61 1016.5
20260501220912 65 39 4.0 7.0 0.00 0.00 0.00 61 1016.4
20260501220416 64 53 3.0 10.0 0.00 0.00 0.00 62 1016.5
20260501215914 64 55 4.0 10.0 0.00 0.00 0.00 62 1016.5
20260501215413 64 44 6.0 10.0 0.00 0.00 0.00 61 1016.4
20260501214913 64 15 1.0 10.0 0.00 0.00 0.00 61 1016.4
20260501214411 64 69 5.0 10.0 0.00 0.00 0.00 60 1016.4
20260501213914 64 41 5.0 11.0 0.00 0.00 0.00 60 1016.5
20260501213413 64 65 4.0 11.0 0.00 0.00 0.00 60 1016.5
20260501212913 64 21 9.0 13.0 0.00 0.00 0.00 60 1016.4
20260501212411 65 35 6.0 14.0 0.00 0.00 0.00 59 1016.5
20260501211914 65 68 4.0 14.0 0.00 0.00 0.00 60 1016.7
20260501211414 65 53 1.0 10.0 0.00 0.00 0.00 60 1016.8
20260501210912 65 47 9.0 10.0 0.00 0.00 0.00 60 1016.9
20260501210411 65 60 4.0 13.0 0.00 0.00 0.00 58 1017.0
20260501205913 64 42 7.0 14.0 0.00 0.00 0.00 58 1017.1
20260501205414 64 51 3.0 14.0 0.00 0.00 0.00 59 1017.2
20260501204914 64 59 7.0 11.0 0.00 0.00 0.00 58 1017.3
20260501204412 64 44 9.0 11.0 0.00 0.00 0.00 58 1017.4
20260501203910 64 102 3.0 13.0 0.00 0.00 0.00 58 1017.5
20260501203412 64 59 6.0 13.0 0.00 0.00 0.00 59 1017.6
20260501202911 64 66 8.0 14.0 0.00 0.00 0.00 58 1017.6
20260501202412 64 87 9.0 14.0 0.00 0.00 0.00 58 1017.6
20260501201914 65 51 6.0 14.0 0.00 0.00 0.00 58 1017.6
20260501201415 64 79 2.0 14.0 0.00 0.00 0.00 57 1017.5
20260501200911 65 69 9.0 11.0 0.00 0.00 0.00 58 1017.6
20260501200414 65 331 6.0 12.0 0.00 0.00 0.00 58 1017.5
20260501195910 65 40 5.0 12.0 0.00 0.00 0.00 58 1017.5
20260501195414 65 58 9.0 12.0 0.00 0.00 0.00 56 1017.4
20260501194915 65 74 3.0 15.0 0.00 0.00 0.00 56 1017.4
20260501194413 65 134 3.0 15.0 0.00 0.00 0.00 56 1017.2
20260501193913 65 61 15.0 15.0 0.00 0.00 0.00 57 1017.2
20260501193417 65 60 10.0 16.0 0.00 0.00 0.00 57 1017.1
20260501192912 64 80 11.0 16.0 0.00 0.00 0.00 57 1016.9
20260501192416 64 32 10.0 18.0 0.00 0.00 0.00 57 1016.8
20260501191913 64 52 11.0 18.0 0.00 0.00 0.00 58 1017.2
20260501191414 64 71 6.0 18.0 0.00 0.00 0.00 57 1017.0
20260501190914 64 55 9.0 15.0 0.00 0.00 0.00 58 1016.8
20260501190414 64 50 13.0 13.0 0.00 0.00 0.00 57 1016.7
20260501185911 65 58 10.0 15.0 0.00 0.00 0.00 55 1016.8
20260501185413 65 74 5.0 15.0 0.00 0.00 0.00 55 1016.9
20260501184913 65 76 4.0 15.0 0.00 0.00 0.00 55 1017.1
20260501184414 65 39 5.0 11.0 0.00 0.00 0.00 55 1017.0
20260501183912 65 90 8.0 14.0 0.00 0.00 0.00 54 1016.8
20260501183411 64 69 2.0 15.0 0.00 0.00 0.00 53 1016.9
20260501182915 64 65 9.0 15.0 0.00 0.00 0.00 52 1017.0
20260501182411 64 94 4.0 17.0 0.00 0.00 0.00 53 1017.1
20260501181913 64 61 6.0 18.0 0.00 0.00 0.00 52 1017.2
20260501181414 64 63 5.0 20.0 0.00 0.00 0.00 53 1017.4
20260501180918 64 60 12.0 20.0 0.00 0.00 0.00 54 1017.3
20260501180411 65 80 4.0 17.0 0.00 0.00 0.00 54 1017.3
20260501175913 65 98 11.0 17.0 0.00 0.00 0.00 56 1017.4
20260501175413 64 93 9.0 18.0 0.00 0.00 0.00 59 1017.4
20260501174914 64 63 8.0 19.0 0.00 0.00 0.00 56 1017.7
20260501174413 65 77 13.0 19.0 0.00 0.00 0.00 58 1017.8
20260501173915 65 65 6.0 17.0 0.00 0.00 0.00 58 1017.8
20260501173413 64 94 6.0 21.0 0.00 0.00 0.00 59 1018.0
20260501172912 64 76 12.0 21.0 0.00 0.00 0.00 56 1017.8
20260501172338 65 75 3.0 17.0 0.00 0.00 0.00 58 1017.8
20260501171834 65 71 6.0 17.0 0.00 0.00 0.00 59 1017.8
20260501171334 64 85 7.0 16.0 0.00 0.00 0.00 60 1017.9
20260501170835 64 44 4.0 18.0 0.00 0.00 0.00 60 1018.1
20260501170340 64 65 4.0 18.0 0.00 0.00 0.00 60 1018.2
20260501165835 64 82 5.0 15.0 0.00 0.00 0.00 61 1018.1
20260501165335 64 44 2.0 19.0 0.00 0.00 0.00 62 1018.3
20260501164835 63 88 4.0 19.0 0.00 0.00 0.00 61 1018.1
20260501164335 63 68 18.0 19.0 0.00 0.00 0.00 61 1018.2
20260501163834 61 77 12.0 15.0 0.00 0.00 0.00 64 1018.2
20260501163333 61 47 11.0 13.0 0.00 0.00 0.00 67 1018.3
20260501162832 61 54 7.0 13.0 0.00 0.00 0.00 66 1018.6
20260501162333 60 71 11.0 14.0 0.00 0.00 0.00 68 1018.3
20260501161832 60 79 12.0 14.0 0.00 0.00 0.00 69 1018.5
20260501161333 60 95 7.0 14.0 0.00 0.00 0.00 70 1018.5
20260501160835 60 60 5.0 11.0 0.00 0.00 0.00 72 1018.6
20260501160337 60 57 7.0 11.0 0.00 0.00 0.00 71 1018.7
20260501155833 60 62 4.0 11.0 0.00 0.00 0.00 71 1018.7
20260501155332 59 42 9.0 12.0 0.00 0.00 0.00 70 1018.6
20260501154833 59 61 2.0 14.0 0.00 0.00 0.00 70 1018.5
20260501154332 59 71 8.0 14.0 0.00 0.00 0.00 70 1018.3
20260501153832 59 71 9.0 9.0 0.00 0.00 0.00 70 1018.7
20260501153333 59 79 5.0 12.0 0.00 0.00 0.00 70 1018.9
20260501152831 59 44 2.0 12.0 0.00 0.00 0.00 69 1018.8
20260501152333 58 78 8.0 10.0 0.00 0.00 0.00 70 1018.6
20260501151832 58 66 8.0 10.0 0.00 0.00 0.00 70 1018.6
20260501151332 58 54 9.0 11.0 0.00 0.00 0.00 70 1018.5
20260501150834 58 66 3.0 13.0 0.00 0.00 0.00 70 1018.7
20260501150332 58 75 5.0 13.0 0.00 0.00 0.00 70 1018.5
20260501145831 58 42 4.0 14.0 0.00 0.00 0.00 73 1017.8
20260501145334 58 60 3.0 14.0 0.00 0.00 0.00 75 1017.7
20260501144830 58 74 9.0 12.0 0.00 0.00 0.00 79 1017.8
20260501144330 58 44 4.0 9.0 0.00 0.00 0.00 80 1018.3
20260501143831 58 95 2.0 9.0 0.00 0.00 0.00 80 1018.1
20260501143333 59 112 2.0 4.0 0.00 0.00 0.00 81 1018.0
20260501142832 58 113 2.0 8.0 0.00 0.00 0.00 80 1018.3
20260501142332 59 123 3.0 8.0 0.00 0.00 0.00 80 1018.4
20260501141835 58 73 3.0 8.0 0.00 0.00 0.00 80 1018.4
20260501141332 58 65 1.0 8.0 0.00 0.00 0.00 80 1018.3
20260501140832 58 64 3.0 8.0 0.00 0.00 0.00 81 1018.4
20260501140332 59 84 4.0 8.0 0.00 0.00 0.00 81 1018.0